Airfield :
LOGIN :

Register | Disclaimer

   EN    FR    IT 

 










Legend :    VFR   Marginal VFR   IFR   Intensive IFR   Very Intensive IFR
Visi :
Ceiling :
>= 8 km
>= 3000ft
5 to 8 km
1000 to 3000 ft
1500m to 5 km
500 to 1000 ft
800 to 1500m
200 to 500 ft
< 800m
< 200 ft
Symbols :   Thunderstorms  Fog  Heavy snow  Heavy precipitations  Wind > 20 kt
SIGMETs :     Misc.  Thunderstorms  Icing  Turbulence  Mountain Waves  Volcanic Ashes







- Airport Elevation : 74 ft
- IATA code : NDZ


ETMN - Cuxhaven Nordholz Sea AB

CURRENT METAR :
  • 171020Z 26006KT 9999 VCSH FEW010 BKN025 18/14 Q1017 BLU BLU BECMG BLU+

EXPIRED METARs :
  • 170920Z 26007KT 9999 FEW010 OVC015 17/15 Q1017 WHT BLU TEMPO GRN
  • 170855Z 25005KT 9999 BKN010 BKN015 OVC080 17/15 Q1017 GRN BLU TEMPO GRN
  • 170850Z 26005KT 9999 BKN010 BKN015 OVC100 17/15 Q1017 GRN BLU TEMPO GRN
  • 170820Z 27004KT 9999 -RA SCT008 BKN022 OVC100 17/15 Q1017 WHT BLU TEMPO GRN

TAF TAF ETMN
Valid from the 17 at 11:00 until the 17 at 20:00 UTC


171013Z 1711/1720 27008KT 9999 NSW SCT020 BKN070
BECMG 1711/1713 30010KT 9999 NSW FEW020 SCT300
No reported NOTAMs for that airfield.



MET'MAP, your aeronautical weather chart ! - Copyright ORBIFLY December 2007 - Disclaimer

ORBIFLY MET'MAP TEAM :

Programming & Development : Alexandra Zaïnal
Concept & Development : Baudouin d'Aumeries
Co-Development & Prog : Marc-Olivier Méhu
Technical & hardware support : Manuel Goepfert

Contact : metmap@orbifly.com




SOURCES & CREDITS :

   NOAA